Flag for U.S.A. Weather past 2 weeks in Naples, Florida, U.S.A.

Now
70 °F

Sunny.


Feels Like: 75 °F
Forecast: 56 / 72 °F
Wind: 6 mph from North

Location: Naples Municipal

Current Time: Dec 18, 2014 at 5:01:40 PM

Latest Report: Dec 18, 2014 at 3:53 PM


Visibility: 10 mi

Pressure: 30.09 "Hg

Humidity: 66%

Dew point: 58 °F

Location of NaplesLocation

Historic Weather in Naples — Graph

°F

Naples temperature yesterday

Maximum temperature yesterday: 75 °F (at 11:53 AM)
Minimum temperature yesterday: 52 °F (at 4:53 AM)
Average temperature yesterday: 63 °F

Past Weeks' High & Low Weather Summary

 TemperatureHumidityPressure
High84 °F (Dec 4, 1:53 PM)100% (Dec 18, 4:53 AM)30.26 "Hg (Dec 18, 4:53 AM)
Low47 °F (Dec 14, 6:53 AM)32% (Dec 12, 2:53 PM)30.01 "Hg (Dec 7, 3:53 PM)
Average63 °F74%30.12 "Hg
* Reported Dec 3 2:53 PM — Dec 18 2:53 PM, Naples, Weather by CustomWeather, © 2014

Note: Actual official high and low records may vary slightly from our data, if they occured in-between our weather recording intervals... More about our weather records

Advertising

Naples weather history for previous 24 hours

 ConditionsComfort  
Time TempWeatherWind HumidityBarometerVisibility
2:53 PM
Dec 18
70 °FSunny.9 mph68%30.10 "Hg10 mi
1:53 PM69 °FSunny.6 mph70%30.11 "Hg10 mi
12:53 PM70 °FSunny.9 mph64%30.14 "Hg10 mi
11:53 AM69 °FSunny.7 mph59%30.16 "Hg10 mi
10:53 AM68 °FSunny.3 mph57%30.18 "Hg10 mi
9:53 AM66 °FSunny.5 mph59%30.18 "Hg10 mi
8:53 AM62 °FScattered clouds.7 mph67%30.16 "Hg10 mi
7:53 AM58 °FPassing clouds.3 mph90%30.15 "Hg10 mi
6:53 AM58 °FPassing clouds.3 mph97%30.13 "Hg7 mi
5:53 AM58 °FPassing clouds.No wind97%30.13 "Hg7 mi
4:53 AM59 °FClear.No wind100%30.12 "Hg7 mi
4:04 AM60 °FPassing clouds.3 mph96%30.12 "Hg10 mi
3:53 AM60 °FPassing clouds.3 mph96%30.12 "Hg8 mi
2:53 AM62 °FPassing clouds.3 mph96%30.13 "Hg10 mi
1:53 AM64 °FPassing clouds.5 mph94%30.15 "Hg10 mi
12:53 AM65 °FClear.5 mph87%30.15 "Hg10 mi
11:53 PM
Dec 17
65 °FClear.6 mph87%30.16 "Hg10 mi
10:53 PM61 °FClear.No wind97%30.16 "Hg10 mi
9:53 PM62 °FClear.No wind90%30.14 "Hg10 mi
8:53 PM63 °FClear.No wind87%30.14 "Hg10 mi
7:53 PM64 °FClear.No wind87%30.14 "Hg10 mi
6:53 PM66 °FClear.No wind81%30.12 "Hg10 mi
5:53 PM67 °FClear.3 mph81%30.12 "Hg10 mi
Weather by CustomWeather, © 2014

See weather overviewHow to use our weather pages